Tiempo cada hora Barranca de Upía

Hoy, 13 Mayo, Jueves

Tiempo Temperatura Precipitaciones Viento Presión Humedad
00:00 +24°C° 0.3 mm 1 mps 740 mmHg 94%
01:00 +24°C° 0.3 mm 1 mps 739 mmHg 95%
02:00 +24°C° 0.4 mm 1 mps 739 mmHg 95%
03:00 +23°C° 0.4 mm 1 mps 739 mmHg 95%
04:00 +21°C° 0.4 mm 0 mps 739 mmHg 96%
05:00 +24°C° 0.2 mm 1 mps 739 mmHg 95%
06:00 +24°C° 0.2 mm 1 mps 740 mmHg 95%
07:00 +24°C° 0.2 mm 1 mps 740 mmHg 95%
08:00 +25°C° 0 mm 1 mps 740 mmHg 93%
09:00 +25°C° 0 mm 1 mps 741 mmHg 92%
10:00 +26°C° 0 mm 1 mps 741 mmHg 91%
11:00 +28°C° 0 mm 1 mps 740 mmHg 82%
12:00 +30°C° 0 mm 1 mps 739 mmHg 73%
13:00 +31°C° 0 mm 1 mps 739 mmHg 64%
14:00 +31°C° 0.1 mm 1 mps 738 mmHg 65%
15:00 +32°C° 0.1 mm 1 mps 737 mmHg 66%
16:00 +32°C° 0.1 mm 1 mps 737 mmHg 67%
17:00 +30°C° 0 mm 1 mps 737 mmHg 72%
18:00 +28°C° 0 mm 1 mps 737 mmHg 78%
19:00 +26°C° 0 mm 1 mps 738 mmHg 84%
20:00 +26°C° 0.1 mm 1 mps 738 mmHg 84%
21:00 +26°C° 0.1 mm 1 mps 739 mmHg 85%
22:00 +26°C° 0.1 mm 1 mps 740 mmHg 85%
23:00 +25°C° 0 mm 1 mps 739 mmHg 86%

Mañana, 14 Mayo, Viernes

Tiempo Temperatura Precipitaciones Viento Presión Humedad
00:00 +25°C° 0 mm 1 mps 739 mmHg 86%
01:00 +23°C° 0 mm 0 mps 739 mmHg 87%
02:00 +23°C° 0.1 mm 0 mps 739 mmHg 87%
03:00 +23°C° 0.1 mm 0 mps 739 mmHg 88%
04:00 +23°C° 0.1 mm 0 mps 739 mmHg 88%
05:00 +23°C° 0 mm 0 mps 739 mmHg 88%
06:00 +23°C° 0 mm 0 mps 739 mmHg 87%
07:00 +24°C° 0 mm 0 mps 740 mmHg 86%
08:00 +25°C° 0 mm 0 mps 740 mmHg 82%
09:00 +26°C° 0 mm 0 mps 740 mmHg 78%
10:00 +29°C° 0 mm 1 mps 740 mmHg 74%
11:00 +30°C° 0.1 mm 1 mps 740 mmHg 70%
12:00 +31°C° 0.1 mm 1 mps 739 mmHg 65%
13:00 +32°C° 0.1 mm 1 mps 738 mmHg 60%
14:00 +32°C° 0.2 mm 1 mps 738 mmHg 64%
15:00 +31°C° 0.2 mm 1 mps 737 mmHg 68%
16:00 +31°C° 0.2 mm 2 mps 736 mmHg 73%
17:00 +29°C° 0.4 mm 1 mps 737 mmHg 78%
18:00 +27°C° 0.4 mm 1 mps 737 mmHg 83%
19:00 +24°C° 0.4 mm 0 mps 738 mmHg 89%
20:00 +26°C° 0 mm 1 mps 738 mmHg 90%
21:00 +25°C° 0 mm 1 mps 739 mmHg 91%
22:00 +25°C° 0 mm 1 mps 739 mmHg 91%
23:00 +25°C° 0 mm 1 mps 739 mmHg 91%

Pasado mañana, 15 Mayo, Sábado

Tiempo Temperatura Precipitaciones Viento Presión Humedad
00:00 +25°C° 0 mm 1 mps 739 mmHg 92%
01:00 +23°C° 0 mm 0 mps 739 mmHg 92%
02:00 +23°C° 0.2 mm 0 mps 738 mmHg 92%
03:00 +23°C° 0.2 mm 0 mps 738 mmHg 92%
04:00 +23°C° 0.2 mm 0 mps 738 mmHg 92%
05:00 +23°C° 0.3 mm 0 mps 739 mmHg 93%
06:00 +25°C° 0.3 mm 1 mps 739 mmHg 93%
07:00 +25°C° 0.3 mm 1 mps 740 mmHg 94%
08:00 +25°C° 0.2 mm 1 mps 740 mmHg 92%
09:00 +26°C° 0.2 mm 1 mps 740 mmHg 91%
10:00 +24°C° 0.2 mm 0 mps 740 mmHg 89%
11:00 +27°C° 0.1 mm 1 mps 739 mmHg 86%
12:00 +28°C° 0.1 mm 1 mps 739 mmHg 83%
13:00 +29°C° 0.1 mm 1 mps 738 mmHg 81%
14:00 +27°C° 0.2 mm 0 mps 738 mmHg 80%
15:00 +27°C° 0.2 mm 0 mps 737 mmHg 80%
16:00 +27°C° 0.2 mm 0 mps 736 mmHg 79%
17:00 +26°C° 0.4 mm 0 mps 737 mmHg 83%
18:00 +25°C° 0.4 mm 0 mps 737 mmHg 87%
19:00 +24°C° 0.4 mm 0 mps 738 mmHg 92%
20:00 +23°C° 0 mm 0 mps 738 mmHg 92%
21:00 +25°C° 0 mm 1 mps 739 mmHg 92%
22:00 +25°C° 0 mm 1 mps 739 mmHg 93%
23:00 +25°C° 1.3 mm 1 mps 739 mmHg 94%

16 Mayo, Domingo

Tiempo Temperatura Precipitaciones Viento Presión Humedad
00:00 +22°C° 1.3 mm 0 mps 739 mmHg 95%
01:00 +22°C° 1.3 mm 0 mps 738 mmHg 96%
02:00 +22°C° 0.8 mm 0 mps 738 mmHg 96%
03:00 +22°C° 0.8 mm 0 mps 738 mmHg 96%
04:00 +22°C° 0.8 mm 0 mps 738 mmHg 95%
05:00 +24°C° 0.5 mm 1 mps 739 mmHg 96%
06:00 +24°C° 0.5 mm 1 mps 739 mmHg 96%
07:00 +24°C° 0.5 mm 1 mps 740 mmHg 96%
08:00 +25°C° 2.2 mm 1 mps 740 mmHg 96%
09:00 +25°C° 2.2 mm 1 mps 741 mmHg 97%
10:00 +23°C° 2.2 mm 0 mps 741 mmHg 97%
11:00 +23°C° 0.8 mm 0 mps 740 mmHg 95%
12:00 +24°C° 0.8 mm 0 mps 740 mmHg 94%
13:00 +24°C° 0.8 mm 0 mps 739 mmHg 92%
14:00 +24°C° 0.2 mm 0 mps 739 mmHg 91%
15:00 +24°C° 0.2 mm 0 mps 738 mmHg 90%
16:00 +27°C° 0.2 mm 1 mps 738 mmHg 89%
17:00 +26°C° 0.5 mm 1 mps 738 mmHg 91%
18:00 +25°C° 0.5 mm 1 mps 739 mmHg 94%
19:00 +24°C° 0.5 mm 1 mps 740 mmHg 97%
20:00 +24°C° 0.1 mm 1 mps 740 mmHg 97%
21:00 +24°C° 0.1 mm 1 mps 740 mmHg 96%
22:00 +22°C° 0.1 mm 0 mps 740 mmHg 96%
23:00 +22°C° 0 mm 0 mps 740 mmHg 96%

17 Mayo, Lunes

Tiempo Temperatura Precipitaciones Viento Presión Humedad
00:00 +22°C° 0 mm 0 mps 739 mmHg 96%
01:00 +22°C° 0 mm 0 mps 739 mmHg 96%
02:00 +22°C° 0.3 mm 0 mps 739 mmHg 96%
03:00 +22°C° 0.3 mm 0 mps 739 mmHg 97%
04:00 +22°C° 0.3 mm 0 mps 739 mmHg 97%
05:00 +22°C° 0.7 mm 0 mps 740 mmHg 97%
06:00 +22°C° 0.7 mm 0 mps 740 mmHg 97%
07:00 +22°C° 0.7 mm 0 mps 741 mmHg 97%
08:00 +24°C° 0.7 mm 1 mps 741 mmHg 97%
09:00 +24°C° 0.7 mm 1 mps 741 mmHg 97%
10:00 +25°C° 0.7 mm 1 mps 742 mmHg 97%
11:00 +24°C° 1.1 mm 1 mps 741 mmHg 97%
12:00 +24°C° 1.1 mm 1 mps 741 mmHg 97%
13:00 +24°C° 1.1 mm 1 mps 740 mmHg 97%
14:00 +24°C° 0.4 mm 1 mps 740 mmHg 97%
15:00 +24°C° 0.4 mm 1 mps 739 mmHg 97%
16:00 +22°C° 0.4 mm 0 mps 739 mmHg 96%
17:00 +24°C° 0 mm 1 mps 739 mmHg 96%
18:00 +24°C° 0 mm 1 mps 739 mmHg 95%
19:00 +24°C° 0 mm 1 mps 739 mmHg 94%
20:00 +24°C° 0 mm 1 mps 740 mmHg 94%
21:00 +24°C° 0 mm 1 mps 740 mmHg 94%
22:00 +23°C° 0 mm 1 mps 740 mmHg 94%
23:00 +23°C° 0 mm 1 mps 740 mmHg 94%

18 Mayo, Martes

Tiempo Temperatura Precipitaciones Viento Presión Humedad
00:00 +23°C° 0 mm 1 mps 740 mmHg 94%
01:00 +21°C° 0 mm 0 mps 739 mmHg 94%
02:00 +21°C° 0.1 mm 0 mps 739 mmHg 94%
03:00 +21°C° 0.1 mm 0 mps 739 mmHg 94%
04:00 +21°C° 0.1 mm 0 mps 739 mmHg 94%
05:00 +21°C° 0.1 mm 0 mps 740 mmHg 95%
06:00 +21°C° 0.1 mm 0 mps 740 mmHg 95%
07:00 +21°C° 0.1 mm 0 mps 741 mmHg 95%
08:00 +22°C° 0 mm 0 mps 741 mmHg 94%
09:00 +22°C° 0 mm 0 mps 742 mmHg 93%
10:00 +23°C° 0 mm 0 mps 742 mmHg 92%
11:00 +25°C° 0.3 mm 1 mps 742 mmHg 91%
12:00 +26°C° 0.3 mm 1 mps 741 mmHg 90%
13:00 +26°C° 0.3 mm 2 mps 741 mmHg 89%
14:00 +25°C° 0.3 mm 1 mps 740 mmHg 92%
15:00 +25°C° 0.3 mm 1 mps 740 mmHg 94%
16:00 +24°C° 0.3 mm 1 mps 740 mmHg 96%
17:00 +24°C° 0.4 mm 1 mps 740 mmHg 97%
18:00 +22°C° 0.4 mm 0 mps 741 mmHg 97%
19:00 +21°C° 0.4 mm 0 mps 741 mmHg 97%
20:00 +21°C° 0.7 mm 0 mps 742 mmHg 98%
21:00 +21°C° 0.7 mm 0 mps 742 mmHg 98%
22:00 +21°C° 0.7 mm 0 mps 742 mmHg 98%
23:00 +23°C° 0.2 mm 1 mps 742 mmHg 98%
Mostrar más

Necesitamos Su Consentimiento

Meteoprog y nuestros Proveedores de Servicios pueden almacenar y acceder a sus datos personales como cookies, identificadores de dispositivo u otras tecnologías similares de su dispositivo y procesar dichos datos para personalizar contenido y anuncios, además de ofrecer funciones de redes sociales y analizar el tráfico.

  • Almacenar y/o acceder a información en su dispositivo

    Se puede almacenar o acceder a cookies, identificadores de dispositivo u otra información de su dispositivo para los fines anteriormente indicados.

  • Anuncios y contenido personalizados, medición de anuncios y contenido, percepciones del público, y desarrollo de productos

    Los anuncios y el contenido pueden personalizarse en base a su perfil. Se pueden añadir más datos para personalizar mejor los anuncios y contenidos. Se puede medir el rendimiento de los anuncios y contenidos. Se puede obtener la percepción sobre el público que ha visto los anuncios y contenidos. Dichos datos pueden usarse para desarrollar o mejorar la experiencia del usuario, sistemas y software.

Al hacer clic en ‘Estoy De Acuerdo’ usted permitirá el uso de las cookies, identificadores de dispositivo, balizas web u otras tecnologías similares indicadas. Su configuración puede cambiarse desde el navegador de su dispositivo.

Para ciertos fines, los intereses legítimos pueden ser considerados por encima del consentimiento. Puede leer más sobre ello en nuestra Política de Privacidad y Cookies.